Simultaneous Nadir Overpasses (SNOs) Predictions

Prediction of SNOs between FY3D and AQUA Satellite Orbit:

Table of predicted SNOs for the next 14.0 days since TLE Epoch: 3/16/2024
Index Date (FY3D) Time (FY3D) Lat,Lon (FY3D) SZA (FY3D ) Date (AQUA) Time (AQUA) Lat,Lon (AQUA) SZA (AQUA ) Distance(km) Time Diff (sec)
1 03/18/2024 08:21:50 -79.23,-144.31 99.42 03/18/2024 08:21:57 -79.23,-144.34 99.42 0.79 7
2 03/18/2024 09:11:24 76.37, 38.30 77.06 03/18/2024 09:10:11 76.20, 37.20 76.92 34.88 73
3 03/20/2024 20:25:43 79.38,-146.40 79.80 03/20/2024 20:26:40 79.38,-146.43 79.79 0.50 57
4 03/20/2024 21:16:20 -79.12, 22.98 100.60 03/20/2024 21:15:56 -79.12, 22.92 100.58 1.36 24
5 03/23/2024 09:20:13 79.27, 20.87 78.63 03/23/2024 09:20:38 79.27, 20.82 78.63 1.01 25
6 03/23/2024 10:10:50 -79.01,-169.80 101.77 03/23/2024 10:09:54 -79.01,-169.85 101.75 1.27 56
7 03/25/2024 21:24:23 -79.97, 13.43 101.25 03/25/2024 21:25:37 -80.06, 13.68 101.22 10.82 74
8 03/25/2024 22:14:44 79.20,-172.18 77.52 03/25/2024 22:14:36 79.21,-172.21 77.53 0.76 8
9 03/28/2024 10:18:33 -79.31,-173.94 103.32 03/28/2024 10:19:14 -79.32,-174.07 103.32 2.79 41



Historial Predications of SNOs between FY3D and AQUA
